Location: Zagreb
(45.8150°N, 15.9819°E)
Time: 22:36:46
(UTC+01:00)

Envisat - Visible Passes

Search period start: 24 February 2020 00:00
Search period end: 05 March 2020 00:00
Orbit: 764 x 766 km, 98.1° (Epoch: 24 February)

Date Brightness Start Highest point End Pass type
(mag) Time Alt. Az. Time Alt. Az. Time Alt. Az.
24 Feb 6.2 05:20:58 10° NE 05:24:10 17° E 05:27:22 10° SE visible
24 Feb 4.6 18:15:51 10° SSW 18:20:36 40° W 18:25:25 10° NNW visible
25 Feb 6.5 19:22:04 10° WSW 19:23:31 11° W 19:24:58 10° WNW visible
26 Feb 5.4 05:45:34 10° NE 05:49:56 28° E 05:54:15 10° SSE visible
26 Feb 5.6 18:42:12 10° SSW 18:46:17 24° W 18:50:23 10° NW visible
27 Feb 6.4 05:10:22 10° ENE 05:12:44 13° E 05:15:05 10° ESE visible
27 Feb 4.1 18:04:21 10° S 18:09:15 50° W 18:14:13 10° NNW visible
28 Feb 6.3 19:09:22 10° WSW 19:12:03 14° W 19:14:45 10° NW visible
29 Feb 5.8 05:34:33 10° NE 05:38:31 22° E 05:42:28 10° SE visible
29 Feb 5.2 18:30:28 10° SSW 18:34:53 30° W 18:39:21 10° NNW visible
01 Mar 6.8 05:00:50 10° E 05:01:15 10° E 05:01:42 10° E visible
02 Mar 4.8 05:59:28 10° NNE 06:04:12 37° E 06:08:54 10° SSE visible
02 Mar 6.1 18:57:13 10° SW 19:00:37 18° W 19:04:02 10° NW visible
03 Mar 6.2 05:23:39 10° NE 05:27:06 18° E 05:30:32 10° SE visible
03 Mar 4.8 18:18:49 10° SSW 18:23:31 37° W 18:28:13 10° NNW visible
